Pagina principale
METAR-TAF:

METAR-TAF

Aeroporti :

Caldwell, New Jersey, Stati Uniti

latitudine: 40-52-35N, longitudine: 074-16-59W, altezza: 52 m

Osservazione

Il bollettino è stato emesso 27 minuti fa, alle 07:53 UTC
Vento calmo
Temperature 23°C
Umidità 94%
Pressione 1016 hPa
Visibilità: 12.9 km
Cielo sereno

METAR: KCDW 160753Z AUTO 00000KT 8SM CLR 23/22 A3000 RMK AO2 SLP163 T02280217

Ora: 04:20 (08:20 UTC)


TAF: mancante

Osservazioni e previsioni meteorologiche di più di 4000 aeroporti (messaggi METAR e TAF).

Le stazioni disponibili sono rappresentate dai dischi gialli e rossi sulla carta.

Puntare il mouse per vedere il nome della stazione.

Clicca sopra per visualizzare le osservazioni e previsioni meteorologiche.

Per cambiare la mappa : fare clic sui pulsanti verdi con una croce nera per ingrandire, il pulsante verde con un trattino per diminuire, o sulla freccia verde per le mappe adiacenti.


METAR-TAF: